Other Public Products
Issued by NWS Grand Forks, ND

Home | Current Version | Previous Version | Text Only | Print | Product List | Glossary On
Versions: 1 2 3 4 5 6 7 8 9 10 11 12 13 14 15 16 17 18 19 20 21 22 23 24 25 26 27 28 29 30 31 32 33 34 35 36 37 38 39 40 41 42 43 44 45 46 47 48 49 50
000
FPUS83 KFGF 021831
OPUFGF
PRAIRIE TO PINES WEATHER ROUNDUP
NATIONAL WEATHER SERVICE EASTERN NORTH DAKOTA/GRAND FORKS ND
100 PM CDT THU JUL 02 2015

 **SATELLITE DATA USED TO AUGMENT SKY COVER AT AUTOMATED STATIONS**
 *****  WEATHER ACROSS EASTERN NORTH DAKOTA  *****

CITY           SKY/WX    TMP DP  RH WIND       PRES   REMARKS
GRAND FORKS    SUNNY     76  62  62 S13G21    29.93F
6HR MIN TEMP:  58; 6HR MAX TEMP:  77;

GRAND FORKS AF SUNNY     77  63  62 SW10      29.94F
GRAND CITY NWS   N/A     77 N/A N/A SW7         N/A
BUXTON         NOT AVBL
DEVILS LAKE    MOSUNNY   75  61  60 W8        29.94S
6HR MIN TEMP:  66; 6HR MAX TEMP:  75;

FARGO          SUNNY     76  54  46 S13       29.97F
6HR MIN TEMP:  60; 6HR MAX TEMP:  76;

WAHPETON ARPT  NOT AVBL
$$

 *****  WEATHER ACROSS CENTRAL AND WESTERN NORTH DAKOTA  *****

CITY           SKY/WX    TMP DP  RH WIND       PRES   REMARKS
JAMESTOWN      MOSUNNY   73  65  75 S12       29.96F
6HR MIN TEMP:  63; 6HR MAX TEMP:  76;

BISMARCK       MOSUNNY   78  64  61 NW12      29.98F HAZE
6HR MIN TEMP:  62; 6HR MAX TEMP:  77;

MINOT          MOSUNNY   74  62  66 VRB7      29.97F HAZE
6HR MIN TEMP:  62; 6HR MAX TEMP:  74;

MINOT AFB      MOSUNNY   79  68  69 NW9       29.96F HAZE
6HR MIN TEMP:  61; 6HR MAX TEMP:  78;

GARRISON         N/A     74  64  71 NW8       29.99F
6HR MIN TEMP:  60; 6HR MAX TEMP:  74;

WILLISTON      MOSUNNY   80  59  48 N9        30.03F HAZE
6HR MIN TEMP:  56; 6HR MAX TEMP:  80;

DICKINSON      SUNNY     75  59  57 N8        30.04S
6HR MIN TEMP:  58; 6HR MAX TEMP:  75;

HETTINGER      MOSUNNY   72  58  61 NW12      30.06F
6HR MIN TEMP:  57; 6HR MAX TEMP:  74;

$$

 *****  OTHER OBSERVATIONS NORTHEAST NORTH DAKOTA  *****

CITY           SKY/WX    TMP DP  RH WIND       PRES   REMARKS
WALHALLA       FAIR      77  72  83 MISG      29.91S
LANGDON        FAIR      77  66  69 W9        29.95F
CAVALIER       MOCLDY    73  66  78 SW8       29.91S
GRAFTON        FAIR      75  64  69 SW14      29.92F
CANDO          FAIR      73  64  73 NW6       29.95F
FORT TOTTEN      N/A     77  66  68 N5        29.95S
ROLLA            N/A     73  66  78 SW6       29.97S
RUGBY          NOT AVBL
 ***** THE ABOVE OBSERVATIONS ARE NON NWS ARE NOT QUALITY
        CONTROLLED AND MAY MIS-REPORT RAIN FOR SNOW...
$$

 *****  OTHER OBSERVATIONS SOUTHEAST NORTH DAKOTA *****

CITY           SKY/WX    TMP DP  RH WIND       PRES   REMARKS
COOPERSTOWN    NOT AVBL
VALLEY CITY    MOCLDY    73  68  83 S9        29.97F
OAKES            N/A     70  64  83 S8        29.99S
GWINNER          N/A     73  55  53 S7        30.00S
BUFFALO        NOT AVBL
WYNDMERE       NOT AVBL
 ***** THE ABOVE OBSERVATIONS ARE NON NWS ARE NOT QUALITY
       CONTROLLED AND MAY MIS-REPORT RAIN FOR SNOW...
$$

  *****  WEATHER ACROSS NORTHERN MINNESOTA  *****

CITY           SKY/WX    TMP DP  RH WIND       PRES   REMARKS
FLAG ISLAND    MOSUNNY   72  59  64 SW10      29.92S
WARROAD        SUNNY     72  57  60 SW12G20   29.95F
ROSEAU         SUNNY     73  61  64 SW10      29.95F
HALLOCK        SUNNY     73  64  73 S10       29.92S
THF RVR FALLS  SUNNY     73  54  49 SW13      29.97S
6HR MIN TEMP:  57; 6HR MAX TEMP:  72;

HALSTAD        NOT AVBL
FOSSTON        SUNNY     72  55  56 S13       29.99F
BAUDETTE       MOSUNNY   74  49  41 SW14      29.95F
6HR MIN TEMP:  61; 6HR MAX TEMP:  74;

WASKISH        SUNNY     73  59  60 SW8       29.98F
CROOKSTON      SUNNY     75  57  53 SW16      29.96F
$$
  *****  WEATHER ACROSS CENTRAL AND WEST MINNESOTA  *****

CITY           SKY/WX    TMP DP  RH WIND       PRES   REMARKS
BEMIDJI        MOSUNNY   74  56  53 SW8       30.00S
PARK RAPIDS    SUNNY     75  54  47 SW12      30.02S
6HR MIN TEMP:  61; 6HR MAX TEMP:  76;

WADENA         SUNNY     73  55  53 S9        30.02S
DETROIT LAKES  SUNNY     72  54  53 SW8       30.02S
MOORHEAD       SUNNY     73  54  49 S10G16    29.99F
FERGUS FALLS   SUNNY     72  55  56 S7        30.01S
ELBOW LAKE     FAIR      71  53  52 SE10      30.01F
6HR MIN TEMP:  57; 6HR MAX TEMP:  71;

MORRIS MN      PTSUNNY   73  45  35 S9        30.01S
STAPLES        SUNNY     73  54  49 S6        30.02F
WHEATON        PTSUNNY   70  52  52 SE8       30.01F
$$
  *****  WEATHER ELSEWHERE ACROSS MINNESOTA  *****

CITY           SKY/WX    TMP DP  RH WIND       PRES   REMARKS
DULUTH         MOSUNNY   75  57  53 W5        30.01F
6HR MIN TEMP:  59; 6HR MAX TEMP:  76;

INTRNTL FALLS  MOSUNNY   75  59  57 W9        29.96F
6HR MIN TEMP:  58; 6HR MAX TEMP:  76;

ELY            PTSUNNY   73  57  56 SW9       29.98F
CLOQUET        MOSUNNY   73  55  53 SW3       30.01F
BRAINERD       SUNNY     74  54  49 SW8       30.02F
6HR MIN TEMP:  61; 6HR MAX TEMP:  76;

HIBBING        MOSUNNY   74  58  57 W6        30.01S
6HR MIN TEMP:  53; 6HR MAX TEMP:  74;

ALEXANDRIA     MOSUNNY   70  53  54 S12       30.04F
6HR MIN TEMP:  58; 6HR MAX TEMP:  71;

SAINT CLOUD    SUNNY     75  55  49 VRB3      30.02F
6HR MIN TEMP:  54; 6HR MAX TEMP:  75;

MINNEAPOLIS    MOSUNNY   73  53  49 E3        30.02F
6HR MIN TEMP:  59; 6HR MAX TEMP:  73;

$$

  *****  WEATHER ACROSS SOUTH DAKOTA  *****

CITY           SKY/WX    TMP DP  RH WIND       PRES   REMARKS
SIOUX FALLS    CLOUDY    69  59  70 E9        29.99F
6HR MIN TEMP:  58; 6HR MAX TEMP:  69;

BROOKINGS      CLOUDY    68  46  45 SE9       30.02F
WATERTOWN      CLOUDY    70  50  49 S6        30.01S
6HR MIN TEMP:  59; 6HR MAX TEMP:  72;

HURON          RAIN      64  58  80 CALM      29.98F
6HR MIN TEMP:  59; 6HR MAX TEMP:  66; 6HR PCP:  0.03;

SISSETON         N/A     72  52  49 VRB7      29.99S
ABERDEEN       LGT RAIN  63  60  90 SE3       30.00S
6HR MIN TEMP:  60; 6HR MAX TEMP:  63; 6HR PCP:  0.60;

MITCHELL       PTSUNNY   71  63  75 SE6       29.98R
PIERRE         MOSUNNY   73  64  73 NW7       29.98S
6HR MIN TEMP:  61; 6HR MAX TEMP:  73; 6HR PCP:  0.78;

MOBRIDGE       MOSUNNY   76  67  73 N12       29.96F
RAPID CITY     MOSUNNY   77  62  59 N17       30.09F
6HR MIN TEMP:  63; 6HR MAX TEMP:  77;

$$

  *****  SOME WEATHER IN NEARBY STATES *****

CITY           SKY/WX    TMP DP  RH WIND       PRES   REMARKS
GLASGOW MT     CLOUDY    70  59  68 NW10      30.09S HAZE
6HR MIN TEMP:  56; 6HR MAX TEMP:  72;

GREAT FALLS MT SUNNY     78  50  37 VRB6      30.18F
6HR MIN TEMP:  55; 6HR MAX TEMP:  78;

CHEYENNE WY    SUNNY     75  49  39 N7        30.25S
6HR MIN TEMP:  54; 6HR MAX TEMP:  76;

SCOTTSBLUFF NE SUNNY     83  56  39 NW7       30.12F
6HR MIN TEMP:  61; 6HR MAX TEMP:  83;

OMAHA NE       LGT RAIN  67  64  90 E6        29.96F FOG
6HR MIN TEMP:  64; 6HR MAX TEMP:  66; 6HR PCP:  0.28;

DES MOINES IA  CLOUDY    70  54  56 SE8       29.99R
6HR MIN TEMP:  59; 6HR MAX TEMP:  71;

DAVENPORT IA   MOSUNNY   71  52  50 E13       30.00S
6HR MIN TEMP:  55; 6HR MAX TEMP:  71;

CHICAGO IL     MOSUNNY   68  53  58 NE13G20   30.00F
6HR MIN TEMP:  55; 6HR MAX TEMP:  68;

EAU CLAIRE WI  MOSUNNY   74  52  46 MISG      30.02F
6HR MIN TEMP:  53; 6HR MAX TEMP:  74;

LA CROSSE WI   SUNNY     72  53  51 VRB3      30.02F
6HR MIN TEMP:  52; 6HR MAX TEMP:  72;

$$

  *****  SOME NATIONAL WEATHER *****

CITY           SKY/WX    TMP DP  RH WIND       PRES   REMARKS
LA GUARDIA NY  CLOUDY    81  56  42 NE6       29.89S



USA.gov is the U.S. government's official web portal to all federal, state and local government web resources and services.